KB6OQJ Weather Reports


Display with metric or nautical units.
time (UTC)temp
F
wind
direction
speed
MPH
gust
MPH
rain 1hr
in
rain 24hr
in
rain mn
in
humidity
%
barometer
mb
20260502190004 66 313 7.0 12.0 0.00 0.00 0.00 52 1009.2
20260502185004 65 292 0.0 9.0 0.00 0.00 0.00 52 1013.7
20260502184004 65 339 4.0 12.0 0.00 0.00 0.00 51 1013.9
20260502183003 65 331 3.0 12.0 0.00 0.00 0.00 50 1013.8
20260502182004 65 303 6.0 12.0 0.00 0.00 0.00 48 952.7
20260502181004 64 291 4.0 12.0 0.00 0.00 0.00 44 936.5
20260502163004 56 127 0.0 0.0 0.00 0.00 0.00 3 950.8
20260502162004 56 19 0.0 0.0 0.00 0.00 0.00 3 950.8
20260502151004 54 111 0.0 0.0 0.00 0.00 0.00 3 830.5
20260502123004 54 59 0.0 0.0 0.00 0.00 0.00 3 951.8
20260502121004 54 59 0.0 0.0 0.00 0.00 0.00 3 951.8
20260502115004 54 59 0.0 0.0 0.00 0.00 0.00 3 829.1
20260502112003 55 59 0.0 0.0 0.00 0.00 0.00 3 890.1
20260502111003 55 59 0.0 0.0 0.00 0.00 0.00 3 890.1
20260502110004 55 60 0.0 0.0 0.00 0.00 0.00 3 889.9
20260502104003 55 69 0.0 0.0 0.00 0.00 0.00 3 950.8
20260502103004 55 88 0.0 0.0 0.00 0.00 0.00 3 950.8
20260502102004 55 88 0.0 0.0 0.00 0.00 0.00 3 950.8
20260502101003 55 88 0.0 0.0 0.00 0.00 0.00 3 950.8
20260502091004 55 92 0.0 0.0 0.00 0.00 0.00 3 888.6
20260502071004 56 31 0.0 0.0 0.00 0.00 0.00 6 948.9
20260502070004 56 31 0.0 0.0 0.00 0.00 0.00 7 884.6
20260502064003 56 31 0.0 0.0 0.00 0.00 0.00 8 947.8
20260502063004 56 31 0.0 0.0 0.00 0.00 0.00 8 996.8
20260502062004 56 32 0.0 0.0 0.00 0.00 0.00 9 1012.5
20260502061004 56 32 0.0 0.0 0.00 0.00 0.00 10 1012.5
20260502060004 56 31 0.0 0.0 0.00 0.00 0.00 11 1012.5
20260502055004 56 31 0.0 0.0 0.00 0.00 0.00 12 1012.5
20260502054004 57 31 0.0 0.0 0.00 0.00 0.00 13 1012.5
20260502053004 57 31 0.0 0.0 0.00 0.00 0.00 14 1012.5
20260502052004 57 31 0.0 0.0 0.00 0.00 0.00 16 1012.5
20260502051004 57 5 0.0 3.0 0.00 0.00 0.00 18 1012.5
20260502050004 57 309 0.0 0.0 0.00 0.00 0.00 20 1012.5
20260502045004 57 309 0.0 0.0 0.00 0.00 0.00 23 1012.5
20260502044004 57 309 0.0 0.0 0.00 0.00 0.00 26 1012.5
20260502043004 57 309 0.0 0.0 0.00 0.00 0.00 29 1012.5
20260502042005 57 309 0.0 0.0 0.00 0.00 0.00 34 1012.5
20260502041004 57 309 0.0 3.0 0.00 0.00 0.00 40 1012.5
20260502040004 57 276 1.0 5.0 0.00 0.00 0.00 43 1012.5
20260502035003 58 250 1.0 3.0 0.00 0.00 0.00 45 1012.5
20260502034004 58 284 2.0 5.0 0.00 0.00 0.00 47 1012.5
20260502033004 59 295 1.0 6.0 0.00 0.00 0.00 50 1012.5
20260502032004 59 298 2.0 8.0 0.00 0.00 0.00 54 1012.5
20260502031004 60 285 0.0 8.0 0.00 0.00 0.00 57 1012.5
20260502030004 60 285 4.0 12.0 0.00 0.00 0.00 60 1012.5
20260502025004 61 289 4.0 12.0 0.00 0.00 0.00 62 1012.5
20260502024004 62 290 1.0 7.0 0.00 0.00 0.00 64 1012.5
20260502023004 63 282 2.0 10.0 0.00 0.00 0.00 64 1012.5
20260502022004 64 285 2.0 9.0 0.00 0.00 0.00 65 1012.5
20260502021004 65 331 2.0 12.0 0.00 0.00 0.00 65 1012.5
20260502015004 67 297 4.0 12.0 0.00 0.00 0.00 64 1012.5
20260502014004 68 292 3.0 9.0 0.00 0.00 0.00 63 1012.5
20260502012004 70 300 2.0 12.0 0.00 0.00 0.00 62 1012.5
20260502011004 70 300 3.0 10.0 0.00 0.00 0.00 61 1012.5
20260502010004 71 305 3.0 12.0 0.00 0.00 0.00 61 1012.5
20260502005004 71 292 6.0 12.0 0.00 0.00 0.00 60 1012.5
20260502004004 72 280 3.0 13.0 0.00 0.00 0.00 60 1012.5
20260502003004 73 272 4.0 12.0 0.00 0.00 0.00 59 1012.5
20260502002004 73 277 3.0 16.0 0.00 0.00 0.00 58 1012.5
20260502001004 73 286 6.0 15.0 0.00 0.00 0.00 58 1012.5
20260501235004 75 294 4.0 16.0 0.00 0.00 0.00 56 1012.5
20260501234004 75 304 6.0 16.0 0.00 0.00 0.00 55 1012.5
20260501233004 76 308 8.0 20.0 0.00 0.00 0.00 54 1012.5
20260501232004 77 310 6.0 14.0 0.00 0.00 0.00 53 1012.5
20260501231003 78 310 5.0 14.0 0.00 0.00 0.00 52 1012.5
20260501225004 79 279 5.0 13.0 0.00 0.00 0.00 51 1012.5
20260501224004 80 306 5.0 15.0 0.00 0.00 0.00 51 1012.5
20260501223004 80 288 4.0 12.0 0.00 0.00 0.00 51 1012.5
20260501222005 80 275 4.0 12.0 0.00 0.00 0.00 52 1012.5
20260501221004 80 310 6.0 13.0 0.00 0.00 0.00 51 1012.5
20260501220004 80 309 5.0 13.0 0.00 0.00 0.00 51 1012.5
20260501215004 80 279 4.0 13.0 0.00 0.00 0.00 52 1012.5
20260501214004 79 282 1.0 12.0 0.00 0.00 0.00 53 1012.5
20260501213004 78 242 0.0 13.0 0.00 0.00 0.00 53 1012.5
20260501212004 78 288 1.0 9.0 0.00 0.00 0.00 54 1012.5
20260501210004 77 278 4.0 12.0 0.00 0.00 0.00 55 1012.5
20260501205004 76 229 3.0 10.0 0.00 0.00 0.00 56 1012.5
20260501203004 74 245 2.0 7.0 0.00 0.00 0.00 59 1012.5
20260501202004 74 255 3.0 7.0 0.00 0.00 0.00 59 951.5
20260501201004 74 285 0.0 8.0 0.00 0.00 0.00 60 951.5
20260501200004 73 294 0.0 6.0 0.00 0.00 0.00 60 951.5
20260501195004 72 286 3.0 10.0 0.00 0.00 0.00 60 951.5
20260501194004 71 223 1.0 7.0 0.00 0.00 0.00 61 951.5
20260501193004 70 215 2.0 9.0 0.00 0.00 0.00 60 956.7